| time (UTC) | temp F | wind direction | speed MPH | gust MPH | rain 1hr in | rain 24hr in | rain mn in | humidity % | barometer mb |
| 20260508235635 | 49 | 337 | 1.0 | 1.0 | 0.00 | 0.09 | 0.09 | 80 | 1011.0 |
| 20260508235131 | 49 | 342 | 0.0 | 1.0 | 0.00 | 0.09 | 0.09 | 78 | 1011.2 |
| 20260508234629 | 49 | 326 | 1.0 | 1.0 | 0.00 | 0.09 | 0.09 | 77 | 1010.9 |
| 20260508234125 | 50 | 344 | 1.0 | 1.0 | 0.00 | 0.09 | 0.09 | 74 | 1010.7 |
| 20260508233625 | 50 | 356 | 0.0 | 0.0 | 0.00 | 0.09 | 0.09 | 73 | 1010.6 |
| 20260508233122 | 51 | 350 | 0.0 | 0.0 | 0.00 | 0.09 | 0.09 | 72 | 1010.8 |
| 20260508232619 | 51 | 239 | 1.0 | 1.0 | 0.00 | 0.09 | 0.09 | 68 | 1010.8 |
| 20260508232115 | 52 | 303 | 1.0 | 2.0 | 0.00 | 0.09 | 0.09 | 64 | 1010.7 |
| 20260508231613 | 52 | 293 | 1.0 | 1.0 | 0.00 | 0.09 | 0.09 | 64 | 1010.8 |
| 20260508231110 | 52 | 19 | 0.0 | 1.0 | 0.00 | 0.09 | 0.09 | 63 | 1010.6 |
| 20260508230606 | 53 | 315 | 1.0 | 2.0 | 0.00 | 0.09 | 0.09 | 60 | 1010.8 |
| 20260508225601 | 52 | 289 | 2.0 | 2.0 | 0.00 | 0.09 | 0.09 | 60 | 1010.8 |
| 20260508225057 | 53 | 317 | 1.0 | 1.0 | 0.00 | 0.09 | 0.09 | 60 | 1010.8 |
| 20260508224555 | 53 | 263 | 1.0 | 2.0 | 0.00 | 0.09 | 0.09 | 58 | 1010.6 |
| 20260508224052 | 53 | 217 | 3.0 | 3.0 | 0.00 | 0.09 | 0.09 | 58 | 1010.8 |
| 20260508223550 | 53 | 49 | 1.0 | 1.0 | 0.00 | 0.09 | 0.09 | 60 | 1010.8 |
| 20260508223047 | 53 | 279 | 2.0 | 2.0 | 0.00 | 0.09 | 0.09 | 59 | 1010.7 |
| 20260508222544 | 53 | 204 | 5.0 | 7.0 | 0.00 | 0.09 | 0.09 | 58 | 1010.6 |
| 20260508222041 | 54 | 32 | 1.0 | 1.0 | 0.00 | 0.09 | 0.09 | 59 | 1010.4 |
| 20260508221537 | 53 | 95 | 1.0 | 2.0 | 0.00 | 0.09 | 0.09 | 59 | 1010.3 |
| 20260508221033 | 53 | 355 | 0.0 | 1.0 | 0.00 | 0.09 | 0.09 | 59 | 1010.7 |
| 20260508220530 | 52 | 18 | 0.0 | 1.0 | 0.00 | 0.09 | 0.09 | 61 | 1010.4 |
| 20260508220026 | 52 | 352 | 1.0 | 1.0 | 0.00 | 0.09 | 0.09 | 59 | 1010.6 |
| 20260508215524 | 52 | 174 | 2.0 | 2.0 | 0.00 | 0.09 | 0.09 | 61 | 1010.7 |
| 20260508215020 | 53 | 295 | 2.0 | 2.0 | 0.00 | 0.09 | 0.09 | 58 | 1010.6 |
| 20260508214518 | 53 | 265 | 5.0 | 5.0 | 0.00 | 0.09 | 0.09 | 58 | 1011.0 |
| 20260508214014 | 52 | 226 | 3.0 | 3.0 | 0.00 | 0.09 | 0.09 | 58 | 1010.9 |
| 20260508213512 | 52 | 278 | 3.0 | 3.0 | 0.00 | 0.09 | 0.09 | 58 | 1010.8 |
| 20260508213007 | 52 | 306 | 2.0 | 2.0 | 0.00 | 0.09 | 0.09 | 57 | 1010.7 |
| 20260508212504 | 53 | 269 | 4.0 | 5.0 | 0.00 | 0.09 | 0.09 | 58 | 1011.1 |
| 20260508212000 | 53 | 39 | 2.0 | 2.0 | 0.00 | 0.09 | 0.09 | 58 | 1010.7 |
| 20260508211455 | 52 | 274 | 2.0 | 2.0 | 0.00 | 0.09 | 0.09 | 59 | 1010.9 |
| 20260508210952 | 52 | 323 | 1.0 | 2.0 | 0.00 | 0.09 | 0.09 | 58 | 1010.6 |
| 20260508210449 | 52 | 268 | 3.0 | 3.0 | 0.00 | 0.09 | 0.09 | 59 | 1010.7 |
| 20260508205945 | 52 | 192 | 3.0 | 3.0 | 0.00 | 0.09 | 0.09 | 59 | 1010.9 |
| 20260508205443 | 53 | 206 | 4.0 | 6.0 | 0.00 | 0.09 | 0.09 | 58 | 1010.9 |
| 20260508204938 | 53 | 221 | 6.0 | 7.0 | 0.00 | 0.09 | 0.09 | 57 | 1011.0 |
| 20260508204436 | 52 | 258 | 3.0 | 3.0 | 0.00 | 0.09 | 0.09 | 58 | 1010.8 |
| 20260508203931 | 52 | 236 | 6.0 | 7.0 | 0.00 | 0.09 | 0.09 | 58 | 1010.8 |
| 20260508203428 | 53 | 254 | 3.0 | 3.0 | 0.00 | 0.09 | 0.09 | 59 | 1010.9 |
| 20260508202924 | 52 | 208 | 4.0 | 5.0 | 0.00 | 0.09 | 0.09 | 59 | 1010.9 |
| 20260508202421 | 52 | 246 | 6.0 | 8.0 | 0.00 | 0.09 | 0.09 | 59 | 1011.2 |
| 20260508201918 | 53 | 266 | 4.0 | 5.0 | 0.00 | 0.09 | 0.09 | 60 | 1011.4 |
| 20260508201414 | 53 | 289 | 7.0 | 9.0 | 0.00 | 0.09 | 0.09 | 58 | 1011.2 |
| 20260508200906 | 52 | 301 | 2.0 | 2.0 | 0.00 | 0.09 | 0.09 | 58 | 1011.1 |
| 20260508200403 | 51 | 293 | 4.0 | 5.0 | 0.00 | 0.09 | 0.09 | 60 | 1011.1 |
| 20260508195858 | 51 | 308 | 2.0 | 2.0 | 0.00 | 0.09 | 0.09 | 60 | 1011.4 |
| 20260508195355 | 51 | 313 | 4.0 | 5.0 | 0.00 | 0.09 | 0.09 | 61 | 1011.4 |
| 20260508194851 | 51 | 192 | 3.0 | 3.0 | 0.00 | 0.09 | 0.09 | 61 | 1011.2 |
| 20260508194348 | 51 | 288 | 3.0 | 3.0 | 0.00 | 0.09 | 0.09 | 60 | 1011.2 |
| 20260508193845 | 51 | 178 | 3.0 | 3.0 | 0.00 | 0.09 | 0.09 | 63 | 1011.4 |
| 20260508193342 | 51 | 258 | 3.0 | 5.0 | 0.00 | 0.09 | 0.09 | 62 | 1011.4 |
| 20260508192838 | 51 | 229 | 7.0 | 8.0 | 0.00 | 0.09 | 0.09 | 61 | 1011.2 |
| 20260508192335 | 52 | 291 | 3.0 | 3.0 | 0.00 | 0.09 | 0.09 | 64 | 1011.5 |
| 20260508191832 | 51 | 326 | 4.0 | 5.0 | 0.00 | 0.09 | 0.09 | 65 | 1011.4 |
| 20260508191330 | 52 | 295 | 2.0 | 3.0 | 0.00 | 0.09 | 0.09 | 60 | 1011.3 |
| 20260508190827 | 53 | 241 | 3.0 | 5.0 | 0.00 | 0.09 | 0.09 | 62 | 1011.2 |
| 20260508190323 | 51 | 287 | 2.0 | 2.0 | 0.00 | 0.09 | 0.09 | 63 | 1011.5 |
| 20260508185819 | 51 | 288 | 3.0 | 3.0 | 0.00 | 0.09 | 0.09 | 62 | 1011.6 |
| 20260508185317 | 50 | 311 | 2.0 | 2.0 | 0.00 | 0.09 | 0.09 | 65 | 1011.7 |
| 20260508184814 | 50 | 315 | 4.0 | 5.0 | 0.00 | 0.09 | 0.09 | 65 | 1011.9 |
| 20260508184311 | 50 | 249 | 3.0 | 3.0 | 0.00 | 0.09 | 0.09 | 66 | 1011.8 |
| 20260508183808 | 51 | 274 | 5.0 | 6.0 | 0.00 | 0.09 | 0.09 | 64 | 1011.8 |
| 20260508183305 | 50 | 247 | 5.0 | 6.0 | 0.00 | 0.09 | 0.09 | 65 | 1011.9 |
| 20260508182800 | 51 | 319 | 3.0 | 3.0 | 0.00 | 0.09 | 0.09 | 62 | 1011.8 |
| 20260508182257 | 50 | 327 | 4.0 | 6.0 | 0.00 | 0.09 | 0.09 | 64 | 1012.0 |
| 20260508181753 | 50 | 239 | 2.0 | 3.0 | 0.00 | 0.09 | 0.09 | 64 | 1011.7 |
| 20260508181250 | 50 | 297 | 5.0 | 6.0 | 0.00 | 0.09 | 0.09 | 64 | 1011.9 |
| 20260508180747 | 50 | 225 | 8.0 | 11.0 | 0.00 | 0.09 | 0.09 | 65 | 1011.7 |
| 20260508180244 | 50 | 241 | 4.0 | 5.0 | 0.00 | 0.09 | 0.09 | 69 | 1011.5 |
| 20260508175740 | 50 | 268 | 4.0 | 5.0 | 0.00 | 0.09 | 0.09 | 67 | 1011.6 |
| 20260508175237 | 51 | 256 | 5.0 | 7.0 | 0.00 | 0.09 | 0.09 | 66 | 1011.7 |
| 20260508174735 | 50 | 258 | 5.0 | 6.0 | 0.00 | 0.09 | 0.09 | 68 | 1011.7 |
| 20260508174232 | 50 | 289 | 6.0 | 8.0 | 0.00 | 0.09 | 0.09 | 69 | 1011.5 |
| 20260508173728 | 50 | 305 | 2.0 | 2.0 | 0.00 | 0.09 | 0.09 | 67 | 1011.5 |
| 20260508173224 | 51 | 273 | 3.0 | 3.0 | 0.00 | 0.09 | 0.09 | 64 | 1011.6 |
| 20260508172721 | 50 | 208 | 5.0 | 7.0 | 0.00 | 0.09 | 0.09 | 65 | 1011.8 |
| 20260508172218 | 50 | 201 | 3.0 | 3.0 | 0.00 | 0.09 | 0.09 | 63 | 1011.7 |
| 20260508171715 | 51 | 219 | 7.0 | 8.0 | 0.00 | 0.09 | 0.09 | 66 | 1011.4 |
| 20260508171211 | 49 | 330 | 6.0 | 6.0 | 0.00 | 0.09 | 0.09 | 70 | 1011.7 |
| 20260508170708 | 48 | 250 | 4.0 | 6.0 | 0.00 | 0.09 | 0.09 | 71 | 1011.6 |
| 20260508170206 | 49 | 296 | 4.0 | 6.0 | 0.00 | 0.09 | 0.09 | 69 | 1011.7 |
| 20260508165703 | 49 | 274 | 2.0 | 3.0 | 0.00 | 0.09 | 0.09 | 72 | 1011.8 |
| 20260508165200 | 49 | 229 | 6.0 | 7.0 | 0.00 | 0.09 | 0.09 | 71 | 1011.7 |
| 20260508164656 | 50 | 233 | 6.0 | 7.0 | 0.00 | 0.09 | 0.09 | 70 | 1011.7 |
| 20260508164153 | 49 | 269 | 3.0 | 5.0 | 0.00 | 0.09 | 0.09 | 72 | 1011.6 |
| 20260508163651 | 49 | 243 | 5.0 | 7.0 | 0.00 | 0.09 | 0.09 | 72 | 1011.5 |
| 20260508163148 | 48 | 280 | 5.0 | 7.0 | 0.00 | 0.09 | 0.09 | 73 | 1011.4 |
| 20260508162643 | 49 | 278 | 2.0 | 2.0 | 0.00 | 0.09 | 0.09 | 72 | 1011.2 |
| 20260508162141 | 48 | 218 | 6.0 | 7.0 | 0.00 | 0.09 | 0.09 | 75 | 1011.4 |
| 20260508161638 | 48 | 239 | 6.0 | 7.0 | 0.00 | 0.09 | 0.09 | 74 | 1011.6 |
| 20260508161135 | 48 | 216 | 5.0 | 7.0 | 0.00 | 0.09 | 0.09 | 73 | 1011.7 |
| 20260508160633 | 48 | 296 | 4.0 | 5.0 | 0.00 | 0.09 | 0.09 | 75 | 1011.6 |
| 20260508160131 | 47 | 204 | 3.0 | 3.0 | 0.00 | 0.09 | 0.09 | 75 | 1011.6 |
| 20260508155628 | 45 | 277 | 3.0 | 5.0 | 0.00 | 0.09 | 0.09 | 75 | 1011.8 |
| 20260508155124 | 46 | 253 | 3.0 | 6.0 | 0.00 | 0.09 | 0.09 | 75 | 1011.8 |
| 20260508154621 | 46 | 315 | 2.0 | 2.0 | 0.00 | 0.09 | 0.09 | 74 | 1012.1 |
| 20260508154118 | 45 | 213 | 3.0 | 3.0 | 0.00 | 0.09 | 0.09 | 77 | 1011.9 |
| 20260508153615 | 45 | 249 | 3.0 | 3.0 | 0.00 | 0.09 | 0.09 | 76 | 1012.2 |
| 20260508153111 | 45 | 291 | 3.0 | 3.0 | 0.00 | 0.09 | 0.09 | 77 | 1012.2 |
| 20260508152603 | 45 | 309 | 4.0 | 5.0 | 0.00 | 0.09 | 0.09 | 77 | 1011.8 |
| 20260508152058 | 46 | 195 | 4.0 | 6.0 | 0.00 | 0.09 | 0.09 | 75 | 1012.1 |
| 20260508151555 | 47 | 264 | 5.0 | 6.0 | 0.00 | 0.09 | 0.09 | 74 | 1011.9 |
| 20260508151052 | 47 | 228 | 5.0 | 7.0 | 0.00 | 0.09 | 0.09 | 73 | 1011.6 |
| 20260508150549 | 46 | 220 | 2.0 | 2.0 | 0.00 | 0.09 | 0.09 | 74 | 1011.9 |
| 20260508150045 | 45 | 242 | 4.0 | 5.0 | 0.00 | 0.09 | 0.09 | 77 | 1012.0 |
| 20260508145542 | 44 | 237 | 3.0 | 3.0 | 0.00 | 0.09 | 0.09 | 78 | 1012.0 |
| 20260508145038 | 44 | 210 | 5.0 | 6.0 | 0.00 | 0.09 | 0.09 | 78 | 1012.0 |
| 20260508144536 | 44 | 269 | 3.0 | 3.0 | 0.00 | 0.09 | 0.09 | 80 | 1012.0 |
| 20260508144033 | 44 | 182 | 2.0 | 2.0 | 0.00 | 0.09 | 0.09 | 81 | 1012.1 |
| 20260508143531 | 44 | 242 | 3.0 | 3.0 | 0.00 | 0.09 | 0.09 | 81 | 1011.9 |
| 20260508143027 | 45 | 251 | 7.0 | 9.0 | 0.00 | 0.09 | 0.09 | 84 | 1011.8 |
| 20260508142524 | 46 | 320 | 2.0 | 2.0 | 0.00 | 0.09 | 0.09 | 82 | 1011.9 |
| 20260508142021 | 45 | 274 | 3.0 | 3.0 | 0.00 | 0.09 | 0.09 | 79 | 1011.7 |
| 20260508141517 | 44 | 264 | 3.0 | 3.0 | 0.00 | 0.09 | 0.09 | 79 | 1011.7 |
| 20260508141015 | 44 | 256 | 4.0 | 5.0 | 0.00 | 0.09 | 0.09 | 80 | 1011.6 |
| 20260508140512 | 45 | 268 | 5.0 | 6.0 | 0.00 | 0.09 | 0.09 | 82 | 1011.7 |
| 20260508140008 | 46 | 255 | 3.0 | 6.0 | 0.00 | 0.09 | 0.09 | 81 | 1011.6 |
| 20260508135504 | 45 | 238 | 2.0 | 2.0 | 0.00 | 0.09 | 0.09 | 85 | 1011.8 |
| 20260508135000 | 45 | 254 | 3.0 | 3.0 | 0.00 | 0.09 | 0.09 | 84 | 1011.6 |
| 20260508134457 | 45 | 250 | 4.0 | 5.0 | 0.00 | 0.09 | 0.09 | 81 | 1011.6 |
| 20260508133954 | 46 | 258 | 1.0 | 2.0 | 0.00 | 0.09 | 0.09 | 80 | 1011.6 |
| 20260508133451 | 45 | 260 | 4.0 | 5.0 | 0.00 | 0.09 | 0.09 | 81 | 1011.6 |
| 20260508132948 | 45 | 94 | 1.0 | 1.0 | 0.00 | 0.09 | 0.09 | 85 | 1011.6 |
| 20260508132446 | 44 | 286 | 2.0 | 2.0 | 0.00 | 0.09 | 0.09 | 81 | 1011.7 |
| 20260508131942 | 45 | 270 | 4.0 | 5.0 | 0.00 | 0.09 | 0.09 | 80 | 1011.8 |
| 20260508131438 | 45 | 150 | 2.0 | 2.0 | 0.00 | 0.09 | 0.09 | 83 | 1011.8 |
| 20260508130935 | 44 | 312 | 1.0 | 1.0 | 0.00 | 0.09 | 0.09 | 83 | 1012.0 |
| 20260508130432 | 45 | 19 | 0.0 | 0.0 | 0.00 | 0.09 | 0.09 | 84 | 1011.9 |
| 20260508125927 | 44 | 66 | 1.0 | 1.0 | 0.00 | 0.09 | 0.09 | 87 | 1011.7 |
| 20260508125424 | 46 | 84 | 1.0 | 2.0 | 0.00 | 0.09 | 0.09 | 86 | 1012.0 |
| 20260508124922 | 45 | 345 | 0.0 | 1.0 | 0.00 | 0.09 | 0.09 | 86 | 1011.8 |
| 20260508124419 | 45 | 341 | 1.0 | 1.0 | 0.00 | 0.09 | 0.09 | 89 | 1011.7 |
| 20260508123917 | 42 | 10 | 0.0 | 1.0 | 0.00 | 0.09 | 0.09 | 94 | 1012.1 |
| 20260508123415 | 42 | 215 | 2.0 | 2.0 | 0.00 | 0.09 | 0.09 | 93 | 1011.9 |
| 20260508122911 | 42 | 303 | 1.0 | 1.0 | 0.00 | 0.09 | 0.09 | 93 | 1012.0 |
| 20260508122409 | 43 | 322 | 1.0 | 1.0 | 0.00 | 0.09 | 0.09 | 94 | 1011.9 |
| 20260508121906 | 42 | 320 | 2.0 | 2.0 | 0.00 | 0.09 | 0.09 | 95 | 1011.8 |
| 20260508121404 | 42 | 346 | 0.0 | 0.0 | 0.00 | 0.09 | 0.09 | 98 | 1011.8 |
| 20260508120901 | 42 | 78 | 2.0 | 2.0 | 0.00 | 0.09 | 0.09 | 99 | 1011.8 |
| 20260508120359 | 41 | 0 | 1.0 | 1.0 | 0.00 | 0.09 | 0.09 | 99 | 1011.9 |
| 20260508115856 | 41 | 22 | 0.0 | 1.0 | 0.00 | 0.09 | 0.09 | 99 | 1011.8 |
| 20260508115354 | 41 | 355 | 0.0 | 0.0 | 0.00 | 0.09 | 0.09 | 99 | 1012.0 |
| 20260508114850 | 41 | 11 | 0.0 | 1.0 | 0.00 | 0.09 | 0.09 | 99 | 1011.8 |
| 20260508114347 | 41 | 21 | 0.0 | 0.0 | 0.00 | 0.09 | 0.09 | 99 | 1011.9 |
| 20260508113843 | 40 | 9 | 0.0 | 0.0 | 0.00 | 0.09 | 0.09 | 99 | 1012.0 |
| 20260508113342 | 41 | 22 | 0.0 | 1.0 | 0.00 | 0.09 | 0.09 | 99 | 1012.1 |
| 20260508112838 | 39 | 14 | 0.0 | 0.0 | 0.00 | 0.09 | 0.09 | 99 | 1012.1 |
| 20260508112335 | 39 | 11 | 0.0 | 0.0 | 0.00 | 0.09 | 0.09 | 99 | 1011.9 |
| 20260508111831 | 37 | 358 | 0.0 | 0.0 | 0.00 | 0.09 | 0.09 | 99 | 1012.0 |
| 20260508111329 | 38 | 4 | 1.0 | 1.0 | 0.00 | 0.09 | 0.09 | 99 | 1011.6 |
| 20260508110826 | 37 | 1 | 1.0 | 1.0 | 0.00 | 0.09 | 0.09 | 99 | 1011.8 |
| 20260508110324 | 36 | 1 | 0.0 | 0.0 | 0.00 | 0.09 | 0.09 | 99 | 1011.8 |
| 20260508105823 | 36 | 352 | 0.0 | 0.0 | 0.00 | 0.09 | 0.09 | 99 | 1011.6 |
| 20260508105320 | 35 | 355 | 1.0 | 1.0 | 0.00 | 0.09 | 0.09 | 99 | 1011.8 |
| 20260508104817 | 35 | 7 | 0.0 | 0.0 | 0.00 | 0.09 | 0.09 | 99 | 1011.8 |
| 20260508104314 | 35 | 357 | 0.0 | 0.0 | 0.00 | 0.09 | 0.09 | 99 | 1011.7 |
| 20260508103811 | 35 | 354 | 0.0 | 0.0 | 0.00 | 0.09 | 0.09 | 99 | 1011.7 |
| 20260508103308 | 35 | 7 | 0.0 | 0.0 | 0.00 | 0.09 | 0.09 | 99 | 1011.3 |
| 20260508102806 | 34 | 10 | 0.0 | 0.0 | 0.00 | 0.09 | 0.09 | 99 | 1011.6 |
| 20260508102306 | 34 | 5 | 0.0 | 0.0 | 0.00 | 0.09 | 0.09 | 99 | 1011.6 |
| 20260508101801 | 34 | 22 | 1.0 | 1.0 | 0.00 | 0.09 | 0.09 | 99 | 1011.5 |
| 20260508101258 | 34 | 0 | 0.0 | 0.0 | 0.00 | 0.09 | 0.09 | 99 | 1011.5 |
| 20260508100755 | 34 | 0 | 0.0 | 1.0 | 0.00 | 0.09 | 0.09 | 99 | 1011.5 |
| 20260508100254 | 34 | 357 | 0.0 | 0.0 | 0.00 | 0.09 | 0.09 | 99 | 1011.5 |
| 20260508095749 | 34 | 358 | 0.0 | 0.0 | 0.00 | 0.09 | 0.09 | 99 | 1011.4 |
| 20260508095247 | 34 | 3 | 0.0 | 0.0 | 0.00 | 0.09 | 0.09 | 99 | 1011.4 |
| 20260508094743 | 34 | 5 | 1.0 | 1.0 | 0.00 | 0.09 | 0.09 | 99 | 1011.3 |
| 20260508094241 | 34 | 4 | 0.0 | 0.0 | 0.00 | 0.09 | 0.09 | 99 | 1011.3 |
| 20260508093738 | 34 | 4 | 1.0 | 1.0 | 0.00 | 0.09 | 0.09 | 99 | 1011.3 |
| 20260508093235 | 34 | 9 | 0.0 | 1.0 | 0.00 | 0.09 | 0.09 | 99 | 1011.4 |
| 20260508092732 | 34 | 3 | 0.0 | 0.0 | 0.00 | 0.09 | 0.09 | 99 | 1011.3 |
| 20260508092230 | 34 | 18 | 1.0 | 1.0 | 0.00 | 0.09 | 0.09 | 99 | 1011.3 |
| 20260508091728 | 35 | 2 | 1.0 | 2.0 | 0.00 | 0.09 | 0.09 | 99 | 1011.4 |
| 20260508091225 | 35 | 0 | 0.0 | 0.0 | 0.00 | 0.09 | 0.09 | 99 | 1011.3 |
| 20260508090723 | 35 | 357 | 0.0 | 0.0 | 0.00 | 0.09 | 0.09 | 99 | 1011.2 |
| 20260508090220 | 35 | 351 | 0.0 | 1.0 | 0.00 | 0.09 | 0.09 | 99 | 1011.4 |
| 20260508085716 | 36 | 347 | 0.0 | 0.0 | 0.00 | 0.09 | 0.09 | 99 | 1011.3 |
| 20260508085213 | 36 | 351 | 0.0 | 1.0 | 0.00 | 0.09 | 0.09 | 99 | 1011.1 |
| 20260508084709 | 37 | 353 | 0.0 | 0.0 | 0.00 | 0.09 | 0.09 | 99 | 1011.2 |
| 20260508084207 | 37 | 335 | 1.0 | 1.0 | 0.00 | 0.09 | 0.09 | 99 | 1011.0 |
| 20260508083704 | 36 | 306 | 1.0 | 2.0 | 0.00 | 0.09 | 0.09 | 99 | 1010.9 |
| 20260508083201 | 37 | 350 | 0.0 | 0.0 | 0.00 | 0.09 | 0.09 | 99 | 1010.8 |
| 20260508082656 | 37 | 359 | 0.0 | 1.0 | 0.00 | 0.09 | 0.09 | 99 | 1010.8 |
| 20260508082153 | 37 | 257 | 1.0 | 2.0 | 0.00 | 0.09 | 0.09 | 99 | 1011.1 |
| 20260508081651 | 37 | 331 | 1.0 | 1.0 | 0.00 | 0.09 | 0.09 | 99 | 1010.9 |
| 20260508081147 | 37 | 339 | 1.0 | 1.0 | 0.07 | 0.09 | 0.09 | 99 | 1010.8 |
| 20260508080645 | 37 | 345 | 0.0 | 0.0 | 0.07 | 0.09 | 0.09 | 99 | 1011.2 |
| 20260508080143 | 36 | 332 | 1.0 | 1.0 | 0.00 | 0.08 | 0.08 | 99 | 1010.8 |
| 20260508075639 | 36 | 356 | 0.0 | 0.0 | 0.00 | 0.08 | 0.08 | 99 | 1011.1 |
| 20260508075136 | 36 | 17 | 1.0 | 1.0 | 0.00 | 0.08 | 0.08 | 99 | 1011.0 |
| 20260508074634 | 37 | 1 | 1.0 | 1.0 | 0.00 | 0.08 | 0.08 | 99 | 1011.0 |
| 20260508074130 | 37 | 2 | 0.0 | 0.0 | 0.00 | 0.08 | 0.08 | 99 | 1011.0 |
| 20260508073627 | 37 | 32 | 1.0 | 1.0 | 0.00 | 0.08 | 0.08 | 99 | 1011.0 |
| 20260508073125 | 37 | 4 | 0.0 | 0.0 | 0.00 | 0.08 | 0.08 | 99 | 1011.0 |
| 20260508072615 | 37 | 355 | 1.0 | 1.0 | 0.00 | 0.08 | 0.08 | 99 | 1010.8 |
| 20260508072112 | 37 | 11 | 0.0 | 0.0 | 0.00 | 0.08 | 0.08 | 99 | 1010.8 |
| 20260508071610 | 37 | 1 | 0.0 | 0.0 | 0.00 | 0.08 | 0.08 | 99 | 1011.0 |
| 20260508071108 | 38 | 348 | 0.0 | 1.0 | 0.00 | 0.08 | 0.08 | 99 | 1011.0 |
| 20260508070605 | 38 | 345 | 1.0 | 1.0 | 0.00 | 0.08 | 0.08 | 99 | 1010.9 |
| 20260508070104 | 38 | 347 | 0.0 | 0.0 | 0.00 | 0.08 | 0.08 | 99 | 1010.8 |
| 20260508065601 | 38 | 333 | 1.0 | 1.0 | 0.00 | 0.08 | 0.08 | 99 | 1011.1 |
| 20260508065059 | 38 | 351 | 0.0 | 0.0 | 0.00 | 0.08 | 0.08 | 99 | 1010.9 |
| 20260508064556 | 38 | 348 | 0.0 | 0.0 | 0.00 | 0.08 | 0.08 | 99 | 1010.8 |
| 20260508064054 | 38 | 356 | 0.0 | 0.0 | 0.00 | 0.08 | 0.08 | 99 | 1010.9 |
| 20260508063551 | 37 | 358 | 0.0 | 0.0 | 0.00 | 0.08 | 0.08 | 99 | 1011.1 |
| 20260508063049 | 38 | 359 | 0.0 | 0.0 | 0.00 | 0.08 | 0.08 | 99 | 1011.0 |
| 20260508062546 | 38 | 1 | 0.0 | 0.0 | 0.00 | 0.08 | 0.08 | 99 | 1011.1 |
| 20260508062043 | 38 | 6 | 1.0 | 1.0 | 0.00 | 0.08 | 0.08 | 99 | 1010.8 |
| 20260508061541 | 38 | 343 | 0.0 | 1.0 | 0.00 | 0.08 | 0.08 | 99 | 1011.1 |
| 20260508061037 | 38 | 349 | 0.0 | 0.0 | 0.00 | 0.08 | 0.08 | 99 | 1010.9 |
| 20260508060534 | 38 | 353 | 0.0 | 0.0 | 0.00 | 0.08 | 0.08 | 99 | 1011.0 |
| 20260508060032 | 39 | 353 | 0.0 | 0.0 | 0.00 | 0.08 | 0.08 | 99 | 1010.9 |
| 20260508055527 | 39 | 341 | 0.0 | 0.0 | 0.00 | 0.08 | 0.08 | 99 | 1010.7 |
| 20260508055024 | 39 | 55 | 1.0 | 2.0 | 0.00 | 0.08 | 0.08 | 99 | 1010.6 |
| 20260508054520 | 40 | 23 | 0.0 | 1.0 | 0.00 | 0.08 | 0.08 | 99 | 1010.8 |
| 20260508054018 | 40 | 35 | 1.0 | 1.0 | 0.00 | 0.08 | 0.08 | 99 | 1011.1 |
| 20260508053514 | 40 | 21 | 1.0 | 1.0 | 0.00 | 0.08 | 0.08 | 99 | 1011.2 |
| 20260508053013 | 40 | 359 | 0.0 | 0.0 | 0.00 | 0.08 | 0.08 | 99 | 1011.5 |
| 20260508052510 | 40 | 359 | 0.0 | 0.0 | 0.05 | 0.08 | 0.08 | 98 | 1011.4 |
| 20260508052006 | 40 | 351 | 0.0 | 0.0 | 0.05 | 0.08 | 0.08 | 98 | 1011.5 |
| 20260508051503 | 40 | 305 | 1.0 | 2.0 | 0.07 | 0.07 | 0.07 | 98 | 1011.6 |
| 20260508050958 | 40 | 280 | 1.0 | 1.0 | 0.12 | 0.07 | 0.07 | 97 | 1011.8 |
| 20260508050455 | 40 | 9 | 0.0 | 1.0 | 0.05 | 0.06 | 0.06 | 96 | 1011.7 |
| 20260508045951 | 40 | 320 | 1.0 | 1.0 | 0.07 | 0.05 | 0.05 | 95 | 1011.5 |
| 20260508045448 | 41 | 280 | 1.0 | 1.0 | 0.12 | 0.05 | 0.05 | 94 | 1011.5 |
| 20260508044946 | 41 | 288 | 1.0 | 1.0 | 0.12 | 0.04 | 0.04 | 94 | 1011.4 |
| 20260508044443 | 41 | 306 | 1.0 | 1.0 | 0.12 | 0.03 | 0.03 | 91 | 1011.4 |
| 20260508043938 | 42 | 320 | 1.0 | 1.0 | 0.05 | 0.02 | 0.02 | 89 | 1011.5 |
| 20260508043436 | 42 | 308 | 2.0 | 2.0 | 0.07 | 0.01 | 0.01 | 86 | 1011.4 |
| 20260508042932 | 43 | 301 | 2.0 | 2.0 | 0.07 | 0.01 | 0.01 | 83 | 1011.3 |
| 20260508042430 | 44 | 205 | 3.0 | 3.0 | 0.00 | 0.00 | 0.00 | 79 | 1011.3 |
| 20260508041926 | 44 | 24 | 1.0 | 1.0 | 0.00 | 0.00 | 0.00 | 76 | 1011.4 |
| 20260508041423 | 45 | 322 | 1.0 | 1.0 | 0.00 | 0.00 | 0.00 | 73 | 1010.9 |
| 20260508040920 | 45 | 249 | 2.0 | 2.0 | 0.00 | 0.00 | 0.00 | 71 | 1010.8 |
| 20260508040417 | 45 | 349 | 0.0 | 1.0 | 0.00 | 0.00 | 0.00 | 70 | 1010.4 |
| 20260508035915 | 45 | 339 | 1.0 | 1.0 | 0.00 | 0.00 | 0.00 | 69 | 1010.1 |
| 20260508035411 | 45 | 343 | 0.0 | 1.0 | 0.00 | 0.00 | 0.00 | 69 | 1010.2 |
| 20260508034908 | 45 | 45 | 1.0 | 1.0 | 0.00 | 0.00 | 0.00 | 71 | 1009.8 |
| 20260508034406 | 45 | 3 | 1.0 | 2.0 | 0.00 | 0.00 | 0.00 | 68 | 1009.8 |
| 20260508033902 | 45 | 325 | 1.0 | 1.0 | 0.00 | 0.00 | 0.00 | 70 | 1010.2 |
| 20260508033400 | 45 | 325 | 1.0 | 2.0 | 0.00 | 0.00 | 0.00 | 70 | 1010.0 |
| 20260508032857 | 44 | 320 | 2.0 | 2.0 | 0.00 | 0.00 | 0.00 | 71 | 1010.0 |
| 20260508032355 | 44 | 339 | 1.0 | 1.0 | 0.00 | 0.00 | 0.00 | 81 | 1010.0 |
| 20260508031851 | 44 | 0 | 1.0 | 1.0 | 0.00 | 0.00 | 0.00 | 81 | 1009.9 |
| 20260508031349 | 44 | 7 | 0.0 | 0.0 | 0.00 | 0.00 | 0.00 | 81 | 1009.9 |
| 20260508030844 | 44 | 10 | 0.0 | 1.0 | 0.00 | 0.00 | 0.00 | 83 | 1009.9 |
| 20260508030342 | 44 | 2 | 0.0 | 0.0 | 0.00 | 0.00 | 0.00 | 85 | 1010.2 |
| 20260508025838 | 44 | 2 | 0.0 | 0.0 | 0.00 | 0.00 | 0.00 | 84 | 1010.2 |
| 20260508025335 | 44 | 3 | 0.0 | 0.0 | 0.00 | 0.00 | 0.00 | 83 | 1009.8 |
| 20260508024832 | 44 | 3 | 0.0 | 0.0 | 0.00 | 0.00 | 0.00 | 82 | 1009.8 |
| 20260508024329 | 44 | 354 | 0.0 | 0.0 | 0.00 | 0.00 | 0.00 | 79 | 1009.7 |
| 20260508023826 | 44 | 354 | 0.0 | 0.0 | 0.00 | 0.00 | 0.00 | 77 | 1009.9 |
| 20260508023322 | 44 | 2 | 0.0 | 0.0 | 0.00 | 0.00 | 0.00 | 77 | 1009.9 |
| 20260508022819 | 44 | 8 | 1.0 | 1.0 | 0.00 | 0.00 | 0.00 | 78 | 1009.6 |
| 20260508022315 | 43 | 5 | 0.0 | 0.0 | 0.00 | 0.00 | 0.00 | 81 | 1009.7 |
| 20260508021812 | 44 | 353 | 1.0 | 1.0 | 0.00 | 0.00 | 0.00 | 82 | 1010.0 |
| 20260508021308 | 44 | 357 | 0.0 | 0.0 | 0.00 | 0.00 | 0.00 | 81 | 1009.8 |
| 20260508020804 | 44 | 1 | 0.0 | 0.0 | 0.00 | 0.00 | 0.00 | 77 | 1009.8 |
| 20260508020302 | 44 | 7 | 0.0 | 0.0 | 0.00 | 0.00 | 0.00 | 80 | 1009.6 |
| 20260508015759 | 44 | 5 | 0.0 | 0.0 | 0.00 | 0.00 | 0.00 | 76 | 1009.8 |
| 20260508015256 | 44 | 6 | 0.0 | 0.0 | 0.00 | 0.00 | 0.00 | 76 | 1009.9 |
| 20260508014753 | 44 | 3 | 1.0 | 1.0 | 0.00 | 0.00 | 0.00 | 81 | 1009.8 |
| 20260508014250 | 44 | 359 | 0.0 | 0.0 | 0.00 | 0.00 | 0.00 | 81 | 1009.8 |
| 20260508013745 | 44 | 357 | 0.0 | 0.0 | 0.00 | 0.00 | 0.00 | 77 | 1009.8 |
| 20260508013242 | 44 | 2 | 0.0 | 1.0 | 0.00 | 0.00 | 0.00 | 76 | 1009.7 |
| 20260508012740 | 45 | 7 | 0.0 | 1.0 | 0.00 | 0.00 | 0.00 | 78 | 1009.7 |
| 20260508012237 | 45 | 1 | 0.0 | 0.0 | 0.00 | 0.00 | 0.00 | 75 | 1009.8 |
| 20260508011735 | 44 | 351 | 1.0 | 1.0 | 0.00 | 0.00 | 0.00 | 73 | 1009.7 |
| 20260508011232 | 44 | 7 | 0.0 | 1.0 | 0.00 | 0.00 | 0.00 | 78 | 1009.5 |
| 20260508010728 | 44 | 353 | 1.0 | 1.0 | 0.00 | 0.00 | 0.00 | 77 | 1009.6 |
| 20260508010227 | 44 | 0 | 1.0 | 1.0 | 0.00 | 0.00 | 0.00 | 74 | 1009.7 |
| 20260508005723 | 44 | 5 | 0.0 | 0.0 | 0.00 | 0.00 | 0.00 | 79 | 1009.3 |
| 20260508005220 | 44 | 358 | 0.0 | 0.0 | 0.00 | 0.00 | 0.00 | 79 | 1009.5 |
| 20260508004716 | 44 | 354 | 0.0 | 0.0 | 0.00 | 0.00 | 0.00 | 79 | 1009.3 |
| 20260508004212 | 45 | 354 | 0.0 | 1.0 | 0.00 | 0.00 | 0.00 | 80 | 1009.2 |
| 20260508003709 | 46 | 356 | 1.0 | 1.0 | 0.00 | 0.00 | 0.00 | 73 | 1009.3 |
| 20260508003207 | 47 | 0 | 0.0 | 0.0 | 0.00 | 0.00 | 0.00 | 73 | 1009.2 |
| 20260508002703 | 47 | 2 | 0.0 | 1.0 | 0.00 | 0.00 | 0.00 | 66 | 1009.2 |
| 20260508002201 | 47 | 3 | 0.0 | 0.0 | 0.00 | 0.00 | 0.00 | 66 | 1009.0 |
| 20260508001655 | 48 | 32 | 1.0 | 1.0 | 0.00 | 0.00 | 0.00 | 65 | 1009.3 |
| 20260508001152 | 48 | 10 | 1.0 | 2.0 | 0.00 | 0.00 | 0.00 | 65 | 1009.1 |
| 20260508000648 | 48 | 1 | 0.0 | 0.0 | 0.00 | 0.00 | 0.00 | 66 | 1009.3 |
| 20260508000145 | 48 | 8 | 0.0 | 1.0 | 0.00 | 0.00 | 0.00 | 70 | 1008.9 |